World > North America > United States > Mississippi

Southern, Mississippi Regional Weather

Lat: 31.33N, Lon: 89.3W
Wx Zone: MSZ074Web Search

Pass this page to a friend. Tell them to point their camera at the QR Code near the bottom of this page.

Feedback


°F Click to change Southern hourly weather to Imperial units.Click to change Southern hourly weather to Metric units. °C
Southern Weather Map
UTC Time: 5/9/2021, 13:59
Your Time:

Southern, MS Regional Weather

Expires:202105091400;;840004
ASUS44 KJAN 091310
RWRMS 

MISSISSIPPI HOURLY WEATHER ROUNDUP
NATIONAL WEATHER SERVICE JACKSON MS
800 AM CDT SUN MAY 09 2021

NOTE: "FAIR: INDICATES FEW OR NO CLOUDS BELOW 12,000 FEET WITH NO
SIGNIFICANT WEATHER AND/OR OBSTRUCTIONS TO VISIBILITY.


MSZ059>079-091400-
SOUTH MISSISSIPPI
  
CITY           SKY/WX    TMP DP  RH WIND       PRES   REMARKS
BROOKHAVEN     FAIR      68  68 100 S9G15     29.97R                  
HATTIESBURG    SUNNY     68  62  81 SE3       29.99R                  
LAUREL         SUNNY     68  62  83 S5        29.99R                  
MCCOMB         SUNNY     69  66  90 S9        29.97R                  
NATCHEZ        MOSUNNY   68  64  87 S10       29.95R                  
PINE BELT      SUNNY     68  65  90 S9        30.00R                  
$$


SKY/WX - Weather  TMP - Temperature  DP - Dew Point  RH - Relative Humidity
WIND - Wind Direction/Speed PRES - Barometric Pressure VSB - Visibility
WCI - Wind Chill Index E13G22 Wind - East Wind 13 mph/Gusts of 22 mph